TANYUSHA 1 (42911 NORAD) Tracking and Keplerian Element Data

This shows tracking and keplerian element data for the satellite.

Feedback or suggestion? Click here.




ElementValue
Catalog42911
NameTANYUSHA 1
Epoch Orbit9104
Epoch Day80.86992078
Epoch Year2019
RAAN23.7394
Inclination51.6321
Eccentricity0.0005463
Argument of Perigee137.7608
Mean Anonmoly321.9712
Mean Motion15.81114884
Decay Rate0.00061182
L11 42911U 98067NA 19080.86992078 .00061182 00000-0 30708-3 0 9993
L22 42911 51.6321 23.7394 0005463 137.7608 321.9712 15.81114884 91045

Live tracking and technical data element details for TANYUSHA 1 (NORAD 42911). TANYUSHA 1 can be tracked NOW for your location showing map with azimuth and elevation plus other details from your city location.

Track the satellite on the map from your city or location and see movement details for azimuth, elevation, latitude, longitude, range, height, and movement on the map or in text.







IsCatalogInMostPopularTable: catalog: 42911, numindb: 209
Update: records affected: 1



GetName: 42911 TANYUSHA 1

Hit Count: updated at: Sat, 23 Mar 2019 03:20:55 GMT